Location: Dompnac
(44.5644°N, 4.1026°E)
Time: 11:43:51
(UTC+00:00)

USA 234 - Pass Details

Date: 19 September 2020
Orbit: 1102 x 1106 km, 123.0° (Epoch: 16 October)

Event Time Altitude Azimuth Distance (km) Brightness Sun altitude
Exits shadow 19:37:14 - 55° (NE) 3,161 5.4 -20.1°
Reaches altitude 10° 19:37:46 10° 56° (NE) 2,966 5.2 -20.2°
Maximum altitude 19:44:13 58° 135° (SE) 1,268 3.2 -21.2°
Drops below altitude 10° 19:50:38 10° 214° (SSW) 2,956 5.6 -22.3°
Sets 19:53:09 0° 218° (SW) 3,911 6.3 -22.7°
